Location: East Guldeford
(50.9500°N, 0.7500°E)
Time: 09:33:43
(UTC+00:00)

SL-27 R/B - Pass Details

Date: 12 May 2021
Orbit: 418 x 467 km, 74.7° (Epoch: 16 June)

Event Time Altitude Azimuth Distance (km) Brightness Sun altitude
Rises 23:44:46 0° 334° (NNW) 2,384 7.2 -20.6°
Reaches altitude 10° 23:46:50 10° 332° (NNW) 1,518 6.0 -20.6°
Enters shadow 23:49:48 60° 286° (WNW) 492 2.5 -20.7°
